Regional Weather Roundup
Issued by NWS Wakefield, VA

Home | Current Version | Previous Version | Graphics & Text | Print | Product List | Glossary On
Versions: 1 2 3 4 5 6 7 8 9 10 11 12 13 14 15 16 17 18 19 20 21 22 23 24 25 26 27
000
ASUS41 KAKQ 221715
RWRAKQ

REGIONAL WEATHER ROUNDUP
NATIONAL WEATHER SERVICE WAKEFIELD VA
100 PM EDT THU JUN 22 2017

Note: "fair" indicates few or no clouds below 12,000 feet with no
significant weather and/or obstructions to visibility. * = Denotes
station may not report precipitation (e.g., rain,snow,etc.),
thunder or fog.

VAZ042-051-052>054-056-221800-
NORTHERN VIRGINIA

CITY           SKY/WX    TMP DP  RH WIND       PRES   REMARKS
WASH NATIONAL  CLOUDY    87  67  51 NW9       30.02R
DULLES         CLOUDY    83  68  60 W5        30.02F
FORT BELVOIR   CLOUDY    88  66  48 SW5       30.01S
QUANTICO       CLOUDY    89  69  51 SW5       30.03R
FREDERICKSBRG* CLOUDY    88  68  52 S8        30.02S
STAFFORD*      CLOUDY    85  67  54 SW5       30.07S
WARRENTON      CLOUDY    87  65  47 S6        30.03F
CULPEPER*      CLOUDY    86  70  58 SW6       30.04S
MANASSAS*      NOT AVBL
LEESBURG*      CLOUDY    86  72  62 CALM      30.03F
WINCHESTER     PTSUNNY   81  66  61 W8        30.03F
FRONT ROYAL*   CLOUDY    82  70  65 S6        30.04S
LURAY*         CLOUDY    82  68  61 SW8       30.06S
$$

VAZ048-049-060>072-079>083-221800-
CENTRAL AND SOUTH CENTRAL VIRGINIA

CITY           SKY/WX    TMP DP  RH WIND       PRES   REMARKS
RICHMOND       CLOUDY    87  69  54 S8        30.04S
CHESTERFIELD*  NOT AVBL
PETERSBURG*    PTSUNNY   84  71  64 CALM      30.06S
HANOVER        CLOUDY    88  69  53 S5        30.05S
TAPPAHANNOCK*  CLOUDY    88  66  46 SW3       30.04F
QUINTON*       FAIR      86  71  61 S3        30.04S
CHARLOTTSVILLE CLOUDY    87  67  51 SW3       30.05F
GORDONSVILLE*  CLOUDY    86  71  60 S7        30.04F
ORANGE*        CLOUDY    86  68  54 S6        30.04S
LOUISA*        CLOUDY    90  73  58 SW3       30.05S HX  98
BUMPASS*       FAIR      86  72  62 SW5       30.05S
FARMVILLE*     CLOUDY    85  64  48 SW6       30.06S
CREWE*         FAIR      84  67  54 W5        30.07R
FORT PICKETT*  FAIR      84  70  63 SW7       30.07S
CHASE CITY*    FAIR      82  76  82 CALM      30.09S
CLARKSVILLE*   FAIR      81  72  74 W3        30.08S
SOUTH HILL*    PTSUNNY   82  76  80 SW8       30.13F
LAWRENCEVILLE* FAIR      83  73  72 SW8       30.07S
EMPORIA*       CLOUDY    82  72  69 SW8       30.07F
$$

VAZ088>098-221800-
SOUTHEAST VIRGINIA

CITY           SKY/WX    TMP DP  RH WIND       PRES   REMARKS
NORFOLK        CLOUDY    88  72  58 SW7       30.04S
VIRGINIA BEACH CLOUDY    85  72  65 S10       30.03S
NORFOLK NAVAL  NOT AVBL
WEST POINT*    PTSUNNY   86  70  58 S5        30.05F
SALUDA*        FAIR      84  75  74 CALM      30.03S
NEWPORT NEWS   CLOUDY    84  73  69 SW9       30.05R
LANGLEY AFB    PTSUNNY   84  74  71 SW7       30.04S
FORT EUSTIS    CLOUDY    86  74  68 SW5       30.03S
WILLIAMSBURG*  CLOUDY    88  75  66 CALM      30.06S HX  97
HR EXEC AP*    FAIR      84  73  70 W5        30.02F
FRANKLIN*      CLOUDY    84  72  65 SW7       30.06S
US460-WAKEFLD  CLOUDY    85  74  69 VRB5      30.05S
$$

VAZ020-022-025-037-045-221800-
WEST CENTRAL AND SOUTHWEST VIRGINIA

CITY           SKY/WX    TMP DP  RH WIND       PRES   REMARKS
STAUNTON*      CLOUDY    83  66  57 S6        30.10S
WAYNESBORO*    CLOUDY    82  68  63 SW6       30.10F
HOT SPRINGS VA MOSUNNY   72  55  56 CALM      30.24S HAZE
LYNCHBURG      CLOUDY    82  66  58 W5        30.10S
DANVILLE       CLOUDY    82  71  69 SW9G22    30.10S
SOUTH BOSTON*  FAIR      82  73  74 S5        30.09S
MARTINSVILLE   CLOUDY    80  68  67 W3        30.14F
ROANOKE        CLOUDY    84  65  52 W8        30.12F
BLACKSBURG     CLOUDY    78  65  63 CALM      30.18F
DUBLIN*        CLOUDY    80  60  49 SW7       30.17F
MARION*        CLOUDY    75  64  68 CALM      30.22S
HILLSVILLE*    CLOUDY    73  61  66 CALM      30.19F
RICHLANDS*       N/A    N/A N/A N/A MISG        N/A
WISE*          LGT RAIN  70  70 100 SW10      30.22S
ABINGDON*      LGT RAIN  72  69  89 W9        30.20R
$$

MDZ021>025-VAZ099-100-221800-
SOUTHERN MARYLAND AND THE DELMARVA PENINSULA

CITY           SKY/WX    TMP DP  RH WIND       PRES   REMARKS
PATUXENT RIVER PTSUNNY   86  70  58 SW7       30.01S
BAY BRIDGE APT CLOUDY    84  70  61 S6        30.01R
LEONARDTOWN    PTSUNNY   86  68  54 SW9       30.04S
DOVER          CLOUDY    82  74  77 E9        29.99F
GEORGETOWN     CLOUDY    87  70  56 VRB7      30.01S
EASTON         MOSUNNY   90  66  45 W7        30.05R
CAMBRIDGE      MOSUNNY   84  73  70 S7        30.01R
SALISBURY      CLOUDY    85  72  65 SW8       30.01R
OCEAN CITY     PTSUNNY   81  74  79 SW9       30.02F
WALLOPS ISLAND CLOUDY    84  74  71 SW7       30.02S
ACCOMACK*      PTSUNNY   85  72  65 W7        30.03F
$$

NCZ012>017-030>032-221800-
NORTH CENTRAL AND EASTERN NORTH CAROLINA

CITY           SKY/WX    TMP DP  RH WIND       PRES   REMARKS
ROANOKE RAPIDS FAIR      84  73  70 SW7       30.07F
RALEIGH        CLOUDY    82  74  76 W9        30.11S
ELIZABETH CITY PTSUNNY   85  76  74 W9        30.05F
AHOSKIE*         N/A     84  76  76 CALM      30.07S
EDENTON*       PTSUNNY   86  74  67 SW7       30.07F
CURRITUCK*     PTSUNNY   85  75  71 SW7       30.06F
KILL DEVIL HLS PTSUNNY   83  73  71 CALM      30.06S
MANTEO         PTSUNNY   84  71  64 W6        30.07F
CAPE HATTERAS  MOSUNNY   84  75  74 SW10      30.10S
TARBORO*       NOT AVBL
GOLDSBORO      CLOUDY    85  78  80 W10       30.08F HX  96
WASHINGTON     CLOUDY    86  74  68 SW8       30.08F
GREENVILLE     CLOUDY    86  73  66 W9        30.10S
NEW BERN       CLOUDY    86  76  71 W6        30.10S HX  96
WILMINGTON     CLOUDY    86  74  67 NW9       30.10F
$$

VAZ048-221800-
ELSEWHERE

CITY           SKY/WX    TMP DP  RH WIND       PRES   REMARKS
HARRISBURG PA  CLOUDY    84  68  58 VRB3      29.98F
BALTIMORE      CLOUDY    83  67  58 W10       30.01R
ANNAPOLIS      CLOUDY    81  73  76 SE7       30.01R
ANDREWS AFB    CLOUDY    85  69  57 SW10      30.02R
PHILADELPHIA   PTSUNNY   86  62  44 SW13      29.99F
HENDERSON NC   CLOUDY    81  71  70 SW9       30.09S
GREENSBORO     CLOUDY    79  72  79 W14       30.13S
ROCKY MOUNT    CLOUDY    85  74  69 SW6       30.08F
$$

VAZ100-221800-
MARINE

STATION/POSITION TIME  TEMP    WIND        PRES    WAVE   SWELL
                       AIR SEA DIR/SP/G            HT/PER HT/PER
                 (UTC) (F)     (DEG/KT/KT) (MB)    (FT/S) (FT/S)
BRANDYWINE LGT   1642   76     170/  8/  9 1016.5F
CAPE MAY NJ      1648   79 73  140/  8/ 10 1015.9F
LEWES DE         1642   79 72   90/  8/  9 1016.1S
15NM E FENWICK I 1650   71 70  230/  4/  4 1017.0R   2/ 7   2/ 7
OCEAN-CITY-INLET 1642   72 68  200/  4/  5 1016.8R
WACHAPREAGUE VA  1642   87 82  260/  2/  6 1016.6R
THOMAS POINT MD  1700   80 78  170/  7/  8   N/A
GOOSES REEF MD   1700   81 80  200/  8/  8 1017.1
COVE POINT MD    1642   79     180/  6/  8 1017.1R
SOLOMONS ISLAND  1642   85 77  250/  9/ 11   N/A
BISHOPS HEAD MD  1642   81 81  230/  6/  7 1017.0R
PINEY POINT MD   1642          190/  2/  2   N/A
POTOMAC MD       1700   80 80  150/  6/  8 1015.6    1
CAMBRIDGE MD     1642   87 83              1017.0R
LEWISETTA VA     1642   84 77  270/  4/  5 1016.5S
RAPPAHANNOCK LGT 1642          200/  9/ 10 1018.1
STINGRAY PT      1700   80 78  170/  4/  4 1017.8    0
YORK RVR RNG VA  1642   82     280/  3/  4 1017.7R
YORKTOWN VA      1642   83 77  250/  7/  9 1016.9S
JAMESTOWN VA     1700   83 83  230/  4/  6   N/A     0
DOMINION TERM VA 1642   81     230/  6/  7 1017.6R
KIPTOPEKE VA     1642      76  270/  6/  8   N/A
CHES BAY BRIDGE  1642   78 75  310/ 10/ 10 1017.3R
CAPE HENRY VA    1642   84     270/  4/  7   N/A
WILLOUBY STN VA  1642   80     260/  9/ 10 1017.3R
S CRANEY ISL VA  1642   85     220/  7/ 10 1017.2R
CAPE HENRY BUOY  1700      75                N/A     2/ 7
1ST LANDING BUOY 1700   80 76              1017.3    1
CAPE CHARLES BUO 1651      71                N/A     2/13
64NM E OF VA BCH 1650   72 71  230/  4/  6 1018.2S   2/ 8   2/ 8
DUCK PIER NC     1642   81 62  250/ 12/ 14 1017.5F
44100 DUCK FRF   1605      69                N/A     2/13
OREGON INLET NC  1642   82 78  180/  8/ 10 1018.3F
HATTERAS NC      1642   81 78  210/  8/ 11 1019.0S
DIAMOND SHLS NC  1650   79 80  240/ 10/ 10 1019.3S   2/ 8   2/ 8
CAPE LOOKOUT NC  1700   80     220/ 10/ 11 1019.0F
$$




USA.gov is the U.S. government's official web portal to all federal, state and local government web resources and services.